Flag for Greece

Past Weather in Peristeri, Greece — Yesterday and Last 2 Weeks

Now
97 °F

Sunny.


Feels Like: 95 °F
Forecast: 94 / 74 °F
Wind: N/A

Location: Elefsis Airport

Current Time: Jul 2, 2020 at 4:53:27 pm

Latest Report: Jul 2, 2020 at 3:50 pm


Visibility: 10 mi

Pressure: 29.74 "Hg

Humidity: 25%

Dew Point: 55 °F

Location of PeristeriLocation

Past Weather in Peristeri — Graph

°F

Peristeri Temperature Yesterday

Maximum temperature yesterday: 100 °F (at 1:50 pm)
Minimum temperature yesterday: 73 °F (at 4:20 am)
Average temperature yesterday: 88 °F

High & Low Weather Summary for the Past Weeks

 TemperatureHumidityPressure
High100 °F (Jul 1, 1:50 pm)100% (Jun 22, 8:50 pm)30.04 "Hg (Jun 22, 8:50 pm)
Low64 °F (Jun 22, 7:20 pm)17% (Jun 19, 2:50 pm)29.59 "Hg (Jun 21, 4:20 pm)
Average81 °F46%29.83 "Hg
* Reported Jun 17 2:20 pm — Jul 2 2:50 pm, Peristeri. Weather by CustomWeather, © 2020

Note: Actual official high and low records may vary slightly from our data, if they occured in-between our weather recording intervals... More about our weather records

Peristeri Weather History for the Previous 24 Hours

Scroll right to see more
 ConditionsComfort  
Time TempWeatherWind HumidityBarometerVisibility
2:50 pm
Thu, Jul 2
97 °FSunny.N/A25%29.74 "Hg10 mi
2:20 pm97 °FSunny.N/A25%29.74 "Hg10 mi
1:50 pm97 °FSunny.N/A25%29.74 "Hg10 mi
1:20 pm97 °FSunny.N/A25%29.77 "Hg10 mi
12:50 pm95 °FSunny.N/A26%29.77 "Hg10 mi
12:20 pm95 °FSunny.N/A26%29.77 "Hg10 mi
11:50 am95 °FSunny.N/A25%29.77 "Hg10 mi
11:20 am95 °FSunny.N/A26%29.77 "Hg10 mi
10:50 am93 °FSunny.N/A30%29.77 "Hg10 mi
10:20 am90 °FSunny.N/A33%29.77 "Hg10 mi
9:50 am90 °FSunny.N/A33%29.80 "Hg10 mi
9:20 am88 °FSunny.N/A38%29.80 "Hg10 mi
8:50 am88 °FSunny.N/A38%29.80 "Hg10 mi
8:20 am86 °FSunny.N/A40%29.80 "Hg10 mi
7:50 am84 °FSunny.N/A43%29.80 "Hg10 mi
7:20 am81 °FSunny.N/A48%29.80 "Hg10 mi
6:50 am81 °FSunny.N/A48%29.80 "Hg10 mi
6:20 am79 °FSunny.N/A51%29.77 "Hg10 mi
5:50 am79 °FClear.N/A51%29.77 "Hg10 mi
5:20 am81 °FClear.N/A45%29.77 "Hg10 mi
4:50 am81 °FClear.N/A45%29.77 "Hg10 mi
3:50 am81 °FClear.N/A45%29.77 "Hg10 mi
3:20 am81 °FClear.N/A45%29.77 "Hg10 mi
2:50 am82 °FClear.N/A42%29.77 "Hg10 mi
1:50 am81 °FClear.N/A48%29.80 "Hg10 mi
1:20 am81 °FClear.N/A48%29.80 "Hg10 mi
12:50 am82 °FClear.N/A45%29.80 "Hg10 mi
12:20 am82 °FClear.N/A45%29.80 "Hg10 mi
11:50 pm
Wed, Jul 1
84 °FClear.N/A43%29.80 "Hg10 mi
11:20 pm84 °FClear.N/A45%29.77 "Hg10 mi
10:50 pm86 °FClear.N/A43%29.77 "Hg10 mi
10:20 pm88 °FClear.N/A38%29.77 "Hg10 mi
9:50 pm88 °FClear.N/A38%29.77 "Hg10 mi
9:20 pm90 °FClear.N/A36%29.77 "Hg10 mi
8:50 pm91 °FSunny.N/A34%29.77 "Hg10 mi
8:20 pm93 °FSunny.N/A32%29.77 "Hg10 mi
7:50 pm93 °FSunny.N/A32%29.77 "Hg10 mi
7:20 pm95 °FSunny.N/A30%29.74 "Hg10 mi
6:50 pm97 °FSunny.N/A28%29.74 "Hg10 mi
6:20 pm97 °FPassing clouds.N/A28%29.77 "HgN/A
5:50 pm97 °FPassing clouds.N/A28%29.77 "HgN/A
5:20 pm97 °FPassing clouds.N/A28%29.77 "HgN/A
4:50 pm97 °FPassing clouds.N/A28%29.77 "HgN/A
4:20 pm97 °FPassing clouds.N/A27%29.77 "HgN/A
Weather by CustomWeather, © 2020

See weather overview